CW8659 Weather Reports


time (UTC)temp
F
wind
direction
speed
knots
gust
knots
rain 1hr
in
rain 24hr
in
rain mn
in
humidity
%
barometer
mb
20260831225831 71 188 0.0 0.0 0.00 0.00 0.01 90 1017.7
20260831225319 71 187 0.0 0.0 0.00 0.00 0.01 90 1017.7
20260831224833 71 188 0.0 0.0 0.00 0.00 0.01 90 1017.9
20260831224344 71 188 0.0 0.0 0.00 0.00 0.01 90 1017.8
20260831223831 71 188 0.0 0.0 0.00 0.00 0.01 90 1017.7
20260831223331 71 188 0.0 0.0 0.00 0.00 0.01 90 1017.8
20260831222839 71 187 0.0 0.0 0.00 0.00 0.01 89 1017.8
20260831222327 71 189 0.0 0.0 0.00 0.00 0.01 89 1017.9
20260831221816 71 184 0.0 0.0 0.00 0.00 0.01 89 1017.9
20260831221326 71 181 0.0 0.0 0.00 0.00 0.01 89 1018.0
20260831220828 71 180 0.0 0.0 0.00 0.00 0.01 88 1018.0
20260831220318 71 179 0.0 0.0 0.00 0.00 0.01 88 1018.0
20260831215834 71 168 0.0 0.0 0.00 0.00 0.01 89 1017.9
20260831215316 71 168 0.0 0.0 0.00 0.00 0.01 88 1018.0
20260831214825 71 196 0.0 0.0 0.00 0.00 0.01 88 1018.0
20260831214333 71 190 0.0 0.0 0.00 0.00 0.01 88 1017.9
20260831213825 71 194 0.0 0.0 0.00 0.00 0.01 87 1018.0
20260831213326 71 208 0.0 0.0 0.00 0.00 0.01 87 1018.0
20260831212821 71 188 0.0 0.0 0.00 0.00 0.01 87 1018.0
20260831212331 71 217 0.0 0.0 0.00 0.00 0.01 87 1018.0
20260831211841 71 203 0.0 0.0 0.00 0.00 0.01 88 1018.1
20260831211320 71 203 0.0 0.0 0.00 0.00 0.01 87 1018.1
20260831210831 71 203 0.0 0.0 0.00 0.00 0.01 88 1018.1
20260831210318 71 203 0.0 0.0 0.00 0.00 0.01 89 1018.1
20260831205818 72 215 0.0 0.0 0.00 0.00 0.01 90 1018.1
20260831205329 71 211 0.0 0.0 0.00 0.00 0.01 89 1018.2
20260831204822 71 211 0.0 0.0 0.00 0.00 0.01 88 1018.1
20260831204329 72 221 0.0 0.0 0.00 0.00 0.01 88 1018.1
20260831203839 72 227 0.0 0.0 0.00 0.00 0.01 88 1018.2
20260831203338 72 228 0.0 0.0 0.00 0.00 0.01 88 1018.3
20260831202323 72 231 0.0 0.0 0.00 0.00 0.01 90 1018.4
20260831201838 72 232 0.0 0.0 0.00 0.00 0.01 89 1018.5
20260831201337 72 234 0.0 0.0 0.00 0.00 0.01 90 1018.6
20260831200840 71 233 0.0 0.0 0.00 0.00 0.01 91 1018.5
20260831200329 71 234 0.0 0.0 0.00 0.00 0.01 90 1018.6
20260831195822 71 233 0.0 0.0 0.00 0.00 0.01 90 1018.6
20260831195331 71 234 0.0 0.0 0.00 0.00 0.01 90 1018.7
20260831194840 72 234 0.0 0.0 0.00 0.00 0.01 90 1018.8
20260831194328 72 233 0.0 0.0 0.00 0.00 0.01 89 1018.7
20260831193817 72 234 0.0 0.0 0.00 0.00 0.01 88 1018.6
20260831193326 72 234 0.0 0.0 0.00 0.00 0.01 88 1018.7
20260831192835 72 234 0.0 0.0 0.00 0.00 0.00 86 1018.8
20260831192316 72 234 0.0 0.0 0.00 0.00 0.00 85 1018.9
20260831191825 72 233 0.0 0.0 0.00 0.00 0.00 86 1019.1
20260831191332 72 234 0.0 0.0 0.00 0.00 0.00 86 1019.1
20260831190837 72 233 0.0 0.0 0.00 0.00 0.00 87 1019.2
20260831190327 71 234 0.0 0.0 0.00 0.00 0.00 86 1019.2
20260831185828 71 200 0.0 0.0 0.00 0.00 0.00 85 1019.4
20260831185316 71 202 0.0 0.0 0.00 0.00 0.00 85 1019.5
20260831184845 71 202 0.0 0.0 0.00 0.00 0.00 86 1019.5
20260831184332 71 202 0.0 0.0 0.00 0.00 0.00 87 1019.5
20260831183824 71 202 0.0 0.0 0.00 0.00 0.00 89 1019.5
20260831183322 71 202 0.0 0.0 0.00 0.00 0.00 88 1019.5
20260831182842 71 202 0.0 0.0 0.00 0.00 0.00 87 1019.4
20260831182322 71 202 0.0 0.0 0.00 0.00 0.00 87 1019.5
20260831181815 71 202 0.0 0.0 0.00 0.00 0.00 87 1019.5
20260831181327 71 202 0.0 0.0 0.00 0.00 0.00 87 1019.7
20260831180826 71 202 0.0 0.0 0.00 0.00 0.00 86 1019.7
20260831180318 71 202 0.0 0.0 0.00 0.00 0.00 86 1019.6
20260831175852 71 202 0.0 0.0 0.00 0.00 0.00 86 1019.6
20260831175336 71 202 0.0 0.0 0.00 0.00 0.00 85 1019.6
20260831174846 71 202 0.0 0.0 0.00 0.00 0.00 84 1019.6
20260831174317 71 202 0.0 0.0 0.00 0.00 0.00 85 1019.7
20260831173829 71 202 0.0 0.0 0.00 0.00 0.00 83 1019.7
20260831173359 71 202 0.0 0.0 0.00 0.00 0.00 83 1019.7
20260831172830 71 202 0.0 0.0 0.00 0.00 0.00 84 1019.7
20260831172317 71 202 0.0 0.0 0.00 0.00 0.00 81 1019.6
20260831171826 71 205 0.0 0.0 0.00 0.00 0.00 82 1019.6
20260831171344 71 205 0.0 0.0 0.00 0.00 0.00 81 1019.6
20260831170831 72 205 0.0 0.0 0.00 0.00 0.00 84 1019.6
20260831170318 71 207 0.0 0.0 0.00 0.00 0.00 82 1019.7
20260831165834 71 207 0.0 0.0 0.00 0.00 0.00 84 1019.5
20260831165321 71 207 0.0 0.0 0.00 0.00 0.00 84 1019.5
20260831164836 71 207 0.0 0.0 0.00 0.00 0.00 84 1019.6
20260831164315 72 206 0.0 0.0 0.00 0.00 0.00 81 1019.7
20260831163828 72 207 0.0 0.0 0.00 0.00 0.00 82 1019.8
20260831163338 72 207 0.0 0.0 0.00 0.00 0.00 82 1019.7
20260831162821 72 207 0.0 0.0 0.00 0.00 0.00 82 1019.7
20260831162339 72 206 0.0 0.0 0.00 0.00 0.00 82 1019.7
20260831161829 72 206 0.0 0.0 0.00 0.00 0.00 81 1019.7
20260831161341 72 225 0.0 0.0 0.00 0.00 0.00 81 1019.7
20260831160850 72 225 0.0 0.0 0.00 0.00 0.00 81 1019.8
20260831160337 72 241 0.0 0.0 0.00 0.00 0.00 80 1019.9
20260831155817 72 242 0.0 0.0 0.00 0.00 0.00 83 1019.7
20260831155329 72 246 0.0 0.0 0.00 0.00 0.00 83 1019.8
20260831154838 72 246 0.0 0.0 0.00 0.00 0.00 82 1019.9
20260831154326 72 249 0.0 0.0 0.00 0.00 0.00 81 1020.0
20260831153819 72 222 0.0 0.0 0.00 0.00 0.00 81 1019.9
20260831153347 72 210 0.0 0.0 0.00 0.00 0.00 83 1020.1
20260831152819 71 209 0.0 0.0 0.00 0.00 0.00 83 1020.0
20260831152318 71 234 0.0 0.0 0.00 0.00 0.00 82 1020.1
20260831151827 71 242 0.0 0.0 0.00 0.00 0.00 83 1020.2
20260831151338 71 243 0.0 0.0 0.00 0.00 0.00 83 1020.1
20260831150825 71 299 0.0 0.0 0.00 0.00 0.00 85 1020.1
20260831150332 71 298 0.0 0.0 0.00 0.00 0.00 83 1020.1
20260831145822 71 298 0.0 0.0 0.00 0.00 0.00 82 1020.1
20260831145331 71 307 0.0 0.0 0.00 0.00 0.00 84 1020.0
20260831144823 71 10 0.0 0.0 0.00 0.00 0.00 84 1019.8
20260831144322 71 10 0.0 0.0 0.00 0.00 0.00 84 1019.8
20260831143833 71 10 0.0 0.0 0.00 0.00 0.00 84 1019.9
20260831143322 71 10 0.0 0.0 0.00 0.00 0.00 84 1020.1
20260831142834 71 10 0.0 0.0 0.00 0.00 0.00 84 1020.2
20260831142319 71 10 0.0 0.0 0.00 0.00 0.00 82 1020.3
20260831141850 71 10 0.0 0.0 0.00 0.00 0.00 83 1020.1
20260831141317 71 10 0.0 0.0 0.00 0.00 0.00 81 1020.1
20260831140828 71 10 0.0 0.0 0.00 0.00 0.00 80 1020.0
20260831140337 71 10 0.0 0.0 0.00 0.00 0.00 81 1020.0
20260831135847 71 10 0.0 0.0 0.00 0.00 0.00 82 1019.9
20260831135323 70 10 0.0 0.0 0.00 0.00 0.00 84 1020.0
20260831134817 70 10 0.0 0.0 0.00 0.00 0.00 83 1020.0
20260831134325 69 10 0.0 0.0 0.00 0.00 0.00 84 1020.1
20260831133817 69 10 0.0 0.0 0.00 0.00 0.00 85 1020.1
20260831133326 69 10 0.0 0.0 0.00 0.00 0.00 85 1020.1
20260831132817 69 10 0.0 0.0 0.00 0.00 0.00 87 1020.0
20260831132317 68 10 0.0 0.0 0.00 0.00 0.00 87 1019.8
20260831131857 68 10 0.0 0.0 0.00 0.00 0.00 88 1019.9
20260831131325 68 10 0.0 0.0 0.00 0.00 0.00 90 1019.9
20260831130834 68 10 0.0 0.0 0.00 0.00 0.00 90 1019.8
20260831130342 68 10 0.0 0.0 0.00 0.00 0.00 90 1019.9
20260831125827 68 10 0.0 0.0 0.00 0.00 0.00 91 1019.8
20260831125321 67 10 0.0 0.0 0.00 0.00 0.00 92 1019.9
20260831124830 67 10 0.0 0.0 0.00 0.00 0.00 91 1020.0
20260831124331 67 10 0.0 0.0 0.00 0.00 0.00 92 1020.0
20260831123823 67 10 0.0 0.0 0.00 0.00 0.00 92 1020.0
20260831123332 67 10 0.0 0.0 0.00 0.00 0.00 92 1020.0
20260831122814 66 10 0.0 0.0 0.00 0.00 0.00 92 1020.1
20260831122319 66 10 0.0 0.0 0.00 0.00 0.00 93 1020.0
20260831121831 66 10 0.0 0.0 0.00 0.00 0.00 93 1020.1
20260831121342 66 10 0.0 0.0 0.00 0.00 0.00 93 1019.9
20260831120827 66 10 0.0 0.0 0.00 0.00 0.00 93 1019.8
20260831120321 65 10 0.0 0.0 0.00 0.00 0.00 93 1019.9
20260831115831 65 10 0.0 0.0 0.00 0.00 0.00 93 1020.1
20260831115319 65 10 0.0 0.0 0.00 0.00 0.00 93 1019.9
20260831114817 65 10 0.0 0.0 0.00 0.00 0.00 93 1019.9
20260831114328 65 10 0.0 0.0 0.00 0.00 0.00 93 1019.9
20260831113838 65 10 0.0 0.0 0.00 0.00 0.00 93 1019.8
20260831113328 65 10 0.0 0.0 0.00 0.00 0.00 93 1019.8
20260831112822 65 10 0.0 0.0 0.00 0.00 0.00 93 1019.9
20260831112326 65 10 0.0 0.0 0.00 0.00 0.00 93 1019.8
20260831111837 64 10 0.0 0.0 0.00 0.00 0.00 93 1019.8
20260831111353 64 10 0.0 0.0 0.00 0.00 0.00 93 1019.8
20260831110826 64 10 0.0 0.0 0.00 0.00 0.00 93 1019.8
20260831110353 64 10 0.0 0.0 0.00 0.00 0.00 93 1019.7
20260831105821 64 10 0.0 0.0 0.00 0.00 0.00 93 1019.6
20260831105350 64 10 0.0 0.0 0.00 0.00 0.00 93 1019.4
20260831104844 64 10 0.0 0.0 0.00 0.00 0.00 94 1019.2
20260831104336 64 10 0.0 0.0 0.00 0.00 0.00 94 1019.4
20260831103844 64 10 0.0 0.0 0.00 0.00 0.00 93 1019.3
20260831103324 64 10 0.0 0.0 0.00 0.00 0.00 93 1019.3
20260831102836 64 10 0.0 0.0 0.00 0.00 0.00 93 1019.2
20260831102346 64 10 0.0 0.0 0.00 0.00 0.00 93 1019.1
20260831101825 64 10 0.0 0.0 0.00 0.00 0.00 93 1019.0
20260831101316 64 10 0.0 0.0 0.00 0.00 0.00 93 1018.9
20260831100829 64 10 0.0 0.0 0.00 0.00 0.00 93 1019.0
20260831100340 64 10 0.0 0.0 0.00 0.00 0.00 93 1019.1
20260831095821 64 10 0.0 0.0 0.00 0.00 0.00 93 1019.1
20260831095357 64 10 0.0 0.0 0.00 0.00 0.00 93 1019.0
20260831094824 64 14 0.0 0.0 0.00 0.00 0.00 93 1019.0
20260831094352 64 14 0.0 0.0 0.00 0.00 0.00 93 1019.2
20260831093823 64 14 0.0 0.0 0.00 0.00 0.00 93 1019.0
20260831093322 64 14 0.0 0.0 0.00 0.00 0.00 93 1019.1
20260831092834 64 14 0.0 0.0 0.00 0.00 0.00 93 1019.1
20260831092327 64 14 0.0 0.0 0.00 0.00 0.00 93 1019.0
20260831091841 65 14 0.0 0.0 0.00 0.00 0.00 93 1019.0
20260831091332 64 14 0.0 0.0 0.00 0.00 0.00 93 1019.0
20260831090833 64 14 0.0 0.0 0.00 0.00 0.00 93 1019.0
20260831090326 64 14 0.0 0.0 0.00 0.00 0.00 93 1019.0
20260831085857 64 14 0.0 0.0 0.00 0.00 0.00 93 1019.0
20260831085325 64 14 0.0 0.0 0.00 0.00 0.00 93 1018.9
20260831084836 65 14 0.0 0.0 0.00 0.00 0.00 93 1018.8
20260831084345 65 14 0.0 0.0 0.00 0.00 0.00 93 1018.7
20260831083828 65 14 0.0 0.0 0.00 0.00 0.00 93 1018.7
20260831083336 65 14 0.0 0.0 0.00 0.00 0.00 93 1018.8
20260831082824 65 14 0.0 0.0 0.00 0.00 0.00 93 1018.9
20260831082353 65 14 0.0 0.0 0.00 0.00 0.00 93 1018.9
20260831081841 65 14 0.0 0.0 0.00 0.00 0.00 93 1018.9
20260831081322 65 14 0.0 0.0 0.00 0.00 0.00 93 1018.8
20260831080831 65 14 0.0 0.0 0.00 0.00 0.00 93 1018.9
20260831080327 65 14 0.0 0.0 0.00 0.00 0.00 93 1018.9
20260831075835 65 14 0.0 0.0 0.00 0.00 0.00 93 1018.8
20260831075345 65 14 0.0 0.0 0.00 0.00 0.00 93 1018.8
20260831074823 65 14 0.0 0.0 0.00 0.00 0.00 93 1018.9
20260831074318 65 14 0.0 0.0 0.00 0.00 0.00 93 1018.9
20260831073817 65 14 0.0 0.0 0.00 0.00 0.00 93 1018.9
20260831073358 65 14 0.0 0.0 0.00 0.00 0.00 93 1018.9
20260831072822 65 14 0.0 0.0 0.00 0.00 0.00 93 1018.9
20260831072323 65 14 0.0 0.0 0.00 0.00 0.00 93 1018.9
20260831071835 65 14 0.0 0.0 0.00 0.00 0.00 93 1018.9
20260831071405 65 14 0.0 0.0 0.00 0.00 0.00 93 1018.9
20260831070853 65 14 0.0 0.0 0.00 0.00 0.00 93 1018.9
20260831070331 65 14 0.0 0.0 0.00 0.00 0.00 93 1019.0
20260831065825 65 14 0.0 0.0 0.00 0.00 0.00 93 1019.0
20260831065333 65 14 0.0 0.0 0.00 0.00 0.00 93 1018.9
20260831064846 65 14 0.0 0.0 0.00 0.00 0.00 93 1019.0
20260831064325 65 14 0.0 0.0 0.00 0.00 0.00 93 1019.1
20260831063831 65 14 0.0 0.0 0.00 0.00 0.00 93 1019.2
20260831063324 65 14 0.0 0.0 0.00 0.00 0.00 93 1019.2
20260831062823 65 14 0.0 0.0 0.00 0.00 0.00 93 1019.3
20260831062404 65 14 0.0 0.0 0.00 0.00 0.00 93 1019.3
20260831061826 65 14 0.0 0.0 0.00 0.00 0.00 93 1019.3
20260831061318 66 14 0.0 0.0 0.00 0.00 0.00 92 1019.2
20260831060825 66 14 0.0 0.0 0.00 0.00 0.00 93 1019.1
20260831060343 66 14 0.0 0.0 0.00 0.00 0.00 93 1019.1
20260831055827 66 14 0.0 0.0 0.00 0.00 0.00 93 1019.1
20260831055336 66 14 0.0 0.0 0.00 0.00 0.00 93 1019.2
20260831054828 66 14 0.0 0.0 0.00 0.00 0.00 93 1019.1
20260831054339 66 14 0.0 0.0 0.00 0.00 0.00 93 1019.1
20260831053839 66 14 0.0 0.0 0.00 0.00 0.00 93 1019.1
20260831053327 66 14 0.0 0.0 0.00 0.00 0.00 93 1019.3
20260831052817 66 14 0.0 0.0 0.00 0.00 0.00 93 1019.3
20260831052328 66 14 0.0 0.0 0.00 0.00 0.00 93 1019.3
20260831051838 66 14 0.0 0.0 0.00 0.00 0.00 93 1019.4
20260831051321 66 14 0.0 0.0 0.00 0.00 0.00 93 1019.3
20260831050829 66 14 0.0 0.0 0.00 0.00 0.00 92 1019.2
20260831050340 66 14 0.0 0.0 0.00 0.00 0.00 92 1019.3
20260831045854 66 14 0.0 0.0 0.00 0.00 0.00 92 1019.3
20260831045332 67 14 0.0 0.0 0.00 0.00 0.00 92 1019.3
20260831044822 67 14 0.0 0.0 0.00 0.00 0.00 92 1019.3
20260831044404 67 14 0.0 0.0 0.00 0.00 0.00 92 1019.2
20260831043846 67 14 0.0 0.0 0.00 0.00 0.00 92 1019.3
20260831043319 67 14 0.0 0.0 0.00 0.00 0.00 92 1019.2
20260831042846 67 14 0.0 0.0 0.00 0.00 0.00 92 1019.3
20260831042320 67 14 0.0 0.0 0.00 0.00 0.00 92 1019.3
20260831041850 67 14 0.0 0.0 0.00 0.00 0.00 92 1019.3
20260831041339 68 14 0.0 0.0 0.00 0.00 0.00 91 1019.1
20260831040829 67 14 0.0 0.0 0.00 0.00 0.00 91 1019.2
20260831040401 67 14 0.0 0.0 0.00 0.00 0.00 92 1019.3
20260831035820 67 14 0.0 0.0 0.00 0.00 0.00 92 1019.3
20260831035357 67 14 0.0 0.0 0.00 0.00 0.00 92 1019.4
20260831034836 67 14 0.0 0.0 0.00 0.00 0.00 92 1019.3
20260831034328 67 14 0.0 0.0 0.00 0.00 0.00 92 1019.4
20260831033838 68 14 0.0 0.0 0.00 0.00 0.00 92 1019.4
20260831033323 68 14 0.0 0.0 0.00 0.00 0.00 92 1019.2
20260831032817 68 14 0.0 0.0 0.00 0.00 0.00 92 1019.2
20260831032349 68 14 0.0 0.0 0.00 0.00 0.00 92 1019.2
20260831031838 68 14 0.0 0.0 0.00 0.00 0.00 92 1019.4
20260831031331 68 14 0.0 0.0 0.00 0.00 0.00 92 1019.4
20260831030839 68 14 0.0 0.0 0.00 0.00 0.00 91 1019.5
20260831030317 68 14 0.0 0.0 0.00 0.00 0.00 91 1019.6
20260831025828 68 14 0.0 0.0 0.00 0.00 0.00 91 1019.6
20260831025322 68 14 0.0 0.0 0.00 0.00 0.00 91 1019.5
20260831024836 68 14 0.0 0.0 0.00 0.00 0.00 92 1019.5
20260831024325 69 14 0.0 0.0 0.00 0.00 0.00 92 1019.6
20260831023842 68 14 0.0 0.0 0.00 0.00 0.00 92 1019.5
20260831023324 68 14 0.0 0.0 0.00 0.00 0.00 92 1019.3
20260831022835 68 14 0.0 0.0 0.00 0.00 0.00 92 1019.5
20260831022345 68 14 0.0 0.0 0.00 0.00 0.00 91 1019.6
20260831021855 68 14 0.0 0.0 0.00 0.00 0.00 91 1019.7
20260831021344 69 14 0.0 0.0 0.00 0.00 0.00 91 1019.6
20260831020818 69 14 0.0 0.0 0.00 0.00 0.00 91 1019.6
20260831020331 69 14 0.0 0.0 0.00 0.00 0.00 91 1019.6
20260831015835 69 14 0.0 0.0 0.00 0.00 0.00 91 1019.6
20260831015317 69 14 0.0 0.0 0.00 0.00 0.00 91 1019.6
20260831014829 69 185 0.0 0.0 0.00 0.00 0.00 92 1019.6
20260831014326 69 185 0.0 0.0 0.00 0.00 0.00 91 1019.7
20260831013829 69 185 0.0 0.0 0.00 0.00 0.00 91 1019.7
20260831013337 69 186 0.0 0.0 0.00 0.00 0.00 91 1019.6
20260831012825 69 184 0.0 0.0 0.00 0.00 0.00 91 1019.5
20260831012333 69 185 0.0 0.0 0.00 0.00 0.00 91 1019.5
20260831011828 69 186 0.0 0.0 0.00 0.00 0.00 91 1019.5
20260831011346 69 186 0.0 0.0 0.00 0.00 0.00 91 1019.5
20260831010823 69 185 0.0 0.0 0.00 0.00 0.00 91 1019.4
20260831010334 69 185 0.0 0.0 0.00 0.00 0.00 91 1019.3
20260831005822 69 184 0.0 0.0 0.00 0.00 0.00 91 1019.2
20260831005331 69 184 0.0 0.0 0.00 0.00 0.00 91 1019.1
20260831004833 70 185 0.0 0.0 0.00 0.00 0.00 90 1018.9
20260831004321 70 184 0.0 0.0 0.00 0.00 0.00 90 1018.9
20260831003832 70 184 0.0 0.0 0.00 0.00 0.00 90 1018.9
20260831003317 70 184 0.0 0.0 0.00 0.00 0.00 90 1018.9
20260831002831 70 185 0.0 0.0 0.00 0.00 0.00 91 1019.0
20260831002319 70 186 0.0 0.0 0.00 0.00 0.00 90 1018.9
20260831001822 70 186 0.0 0.0 0.00 0.00 0.00 90 1018.8
20260831001327 70 186 0.0 0.0 0.00 0.00 0.00 90 1018.8
20260831000838 70 186 0.0 0.0 0.00 0.00 0.00 90 1018.8
20260831000351 71 186 0.0 0.0 0.00 0.00 0.00 90 1018.7
20260830235841 71 186 0.0 0.0 0.00 0.00 0.00 89 1018.5
20260830235329 71 186 0.0 0.0 0.00 0.00 0.00 89 1018.4
20260830234907 71 186 0.0 0.0 0.00 0.00 0.00 89 1018.3
20260830234347 71 186 0.0 0.0 0.00 0.00 0.00 88 1018.2
20260830233813 72 186 0.0 0.0 0.00 0.00 0.00 88 1018.3
20260830233350 72 186 0.0 0.0 0.00 0.00 0.00 87 1018.2
20260830232847 72 186 0.0 0.0 0.00 0.00 0.00 88 1018.2
20260830232352 72 186 0.0 0.0 0.00 0.00 0.00 87 1018.2
20260830231839 72 186 0.0 0.0 0.00 0.00 0.00 86 1018.2
20260830231331 73 186 0.0 0.0 0.00 0.00 0.00 86 1018.2
20260830230838 73 186 0.0 0.0 0.00 0.00 0.00 85 1018.2
20260830230317 73 186 0.0 0.0 0.00 0.00 0.00 84 1018.2